Regional Weather Roundup
Issued by NWS

Home | Current Version | Previous Version | Graphics & Text | Print | Product List | Glossary On
Versions: 1 2 3 4 5 6 7 8 9 10 11 12 13 14 15 16 17 18 19 20 21 22 23 24 25 26 27 28 29 30 31 32 33 34 35 36 37 38 39 40 41 42 43 44 45 46 47 48 49 50
000
ASUS43 KMKX 290021
RWRWI

WISCONSIN REGIONAL WEATHER ROUNDUP
NATIONAL WEATHER SERVICE MILWAUKEE/SULLIVAN WI
700 PM CDT FRI AUG 28 2015

NOTE: "FAIR" INDICATES FEW OR NO CLOUDS BELOW 12,000 FEET WITH NO
SIGNIFICANT WEATHER AND/OR OBSTRUCTIONS TO VISIBILITY.

WIZ001-002-006>008-014>016-023>028-290100-
NORTHWEST WISCONSIN

CITY           SKY/WX    TMP DP  RH WIND       PRES   REMARKS
SUPERIOR ARPT  PTCLDY    75  62  62 SW12      29.94R
6HR MIN TEMP:  75; 6HR MAX TEMP:  80;

ASHLAND        CLEAR     73  63  70 S12       29.96R
6HR MIN TEMP:  73; 6HR MAX TEMP:  81;

HAYWARD        PTCLDY    71  62  73 S8        30.00R
6HR MIN TEMP:  71; 6HR MAX TEMP:  78;

SIREN          CLEAR     72  61  67 S8        29.98S
6HR MIN TEMP:  72; 6HR MAX TEMP:  80;

CUMBERLAND     PTCLDY    68  61  77 S9        30.01S
RICE LAKE      CLEAR     69  59  71 S12       30.03R
6HR MIN TEMP:  69; 6HR MAX TEMP:  74;

CHETEK         CLEAR    N/A N/A N/A S3        30.02S
LADYSMITH      CLOUDY    68  63  83 S8        30.04S
6HR MIN TEMP:  68; 6HR MAX TEMP:  72;

EAU CLAIRE     CLOUDY    64  59  83 S10       30.04R
6HR MIN TEMP:  64; 6HR MAX TEMP:  71; 6HR PCP:  0.08;

MENOMONIE      CLOUDY    64  60  85 S10       30.03S
6HR MIN TEMP:  65; 6HR MAX TEMP:  73; 6HR PCP:  0.02;

NEW RICHMOND   PTCLDY    67  59  75 S14G21    30.02R
6HR MIN TEMP:  67; 6HR MAX TEMP:  77;

OSCEOLA        MOCLDY    71  60  67 S9        30.03R
6HR MIN TEMP:  71; 6HR MAX TEMP:  78;

$$

WIZ003>005-009-010-017-018-290100-
NORTH CENTRAL WISCONSIN

CITY           SKY/WX    TMP DP  RH WIND       PRES   REMARKS
MANITOWISH WTR PTCLDY    67  61  80 SW9       30.03R
6HR MIN TEMP:  67; 6HR MAX TEMP:  73;

ARBOR VITAE    MOCLDY    67  62  83 S12G17    30.03S
6HR MIN TEMP:  67; 6HR MAX TEMP:  73;

WOODRUFF       MOCLDY    67  62  83 S12G17    30.03S
6HR MIN TEMP:  67; 6HR MAX TEMP:  73;

RHINELANDER    CLOUDY    66  61  84 SW7       30.05F
6HR MIN TEMP:  66; 6HR MAX TEMP:  71;

EAGLE RIVER    MOCLDY    67  58  73 SW8       30.03S
6HR MIN TEMP:  67; 6HR MAX TEMP:  73;

LAND O LAKES   MOCLDY    69  61  75 SW8G17    30.03R
6HR MIN TEMP:  69; 6HR MAX TEMP:  74;

PHILLIPS       MOCLDY    65  62  87 S10       30.02F
6HR MIN TEMP:  67; 6HR MAX TEMP:  70;

TOMAHAWK       CLOUDY    65  61  87 CALM      30.05F
6HR MIN TEMP:  65; 6HR MAX TEMP:  68;

MEDFORD        CLOUDY    64  62  96 S5        30.05F
6HR MIN TEMP:  63; 6HR MAX TEMP:  64; 6HR PCP:  0.09;

MERRILL        CLOUDY    64  63  94 SW3       30.06F
6HR MIN TEMP:  64; 6HR MAX TEMP:  68;

$$

WIZ029-030-035-036-043>047-290100-
CENTRAL WISCONSIN

CITY           SKY/WX    TMP DP  RH WIND       PRES   REMARKS
WAUSAU         CLOUDY    63  61  93 S5        30.05R
6HR MIN TEMP:  63; 6HR MAX TEMP:  67; 6HR PCP:  0.02;

MOSINEE        MOCLDY    63  63 100 S7        30.06F
MARSHFIELD     LGT RAIN  64  60  87 S12       30.06S FOG
6HR MIN TEMP:  64; 6HR MAX TEMP:  66; 6HR PCP:  0.12;

STEVENS POINT  LGT RAIN  61  60  97 S5        30.06F
6HR MIN TEMP:  61; 6HR MAX TEMP:  64; 6HR PCP:  0.18;

WAUPACA        RAIN      63  62  96 CALM      30.06F
6HR MIN TEMP:  63; 6HR MAX TEMP:  69;

WAUTOMA        LGT RAIN  63  63 100 SW8       30.09R FOG
6HR MIN TEMP:  63; 6HR MAX TEMP:  67; 6HR PCP:  0.16;

WISC RAPIDS    RAIN      63  59  87 SW14G20   30.10R FOG
6HR MIN TEMP:  63; 6HR MAX TEMP:  65; 6HR PCP:  0.26;

CAMP DOUGLAS   RAIN      59  59 100 SE8       30.09R FOG
                                      6HR PCP:  0.81;

$$

WIZ011>013-019>022-031-037>040-048>050-290100-
NORTHEAST WISCONSIN

CITY           SKY/WX    TMP DP  RH WIND       PRES   REMARKS
ANTIGO         DRIZZLE   63  62  97 S3        30.07S
SHAWANO        DRIZZLE   66  64  92 SW3       30.06S
6HR MIN TEMP:  66; 6HR MAX TEMP:  72; 6HR PCP:  0.04;

OCONTO         CLOUDY    64  64 100 CALM      30.05F
6HR MIN TEMP:  64; 6HR MAX TEMP:  74;

STURGEON BAY   CLOUDY    64  61  88 SW5       30.08S
6HR MIN TEMP:  64; 6HR MAX TEMP:  73;

GREEN BAY      LGT RAIN  64  61  90 CALM      30.06F FOG
6HR MIN TEMP:  64; 6HR MAX TEMP:  70; 6HR PCP:  0.05;

MANITOWOC      LGT RAIN  63  62  97 MISG      30.09S FOG
6HR MIN TEMP:  63; 6HR MAX TEMP:  70;

APPLETON       LGT RAIN  63  61  94 VRB3      30.05F
CLINTONVILLE   DRIZZLE   63  61  94 S6        30.05F
OSHKOSH        LGT RAIN  65  62  90 SE3       30.06F FOG
6HR MIN TEMP:  65; 6HR MAX TEMP:  69; 6HR PCP:  0.10;

$$

WIZ032>034-041-042-053>061-290100-
SOUTHWEST WISCONSIN

CITY           SKY/WX    TMP DP  RH WIND       PRES   REMARKS
LA CROSSE      LGT RAIN  60  57  89 E9        30.03F
6HR MIN TEMP:  60; 6HR MAX TEMP:  65; 6HR PCP:  1.14;

SPARTA         LGT RAIN  58  56  91 SE7       30.07F
6HR MIN TEMP:  58; 6HR MAX TEMP:  65; 6HR PCP:  0.95;

VIROQUA        CLOUDY    58  58 100 NE9G17    30.05F
6HR MIN TEMP:  58; 6HR MAX TEMP:  62; 6HR PCP:  0.61;

BOSCOBEL       RAIN      62  60  93 E7        30.02S FOG
6HR MIN TEMP:  62; 6HR MAX TEMP:  65; 6HR PCP:  0.91;

PRAIRIE DU CHI HVY RAIN  62  61  96 CALM      30.01R
6HR MIN TEMP:  62; 6HR MAX TEMP:  63; 6HR PCP:  1.27;

PLATTEVILLE    CLOUDY    64  63  97 SE14G20   30.00F
6HR MIN TEMP:  64; 6HR MAX TEMP:  64; 6HR PCP:  0.33;

$$

WIZ056-057-062-063-064-067-068-290100-
SOUTH CENTRAL WISCONSIN

CITY           SKY/WX    TMP DP  RH WIND       PRES   REMARKS
REEDSBURG      RAIN      60  59  96 NE6       30.06F
6HR MIN TEMP:  60; 6HR MAX TEMP:  63; 6HR PCP:  0.47;

BARABOO/DELLS  RAIN      60  56  88 E3        30.07F
6HR MIN TEMP:  60; 6HR MAX TEMP:  65; 6HR PCP:  0.46;

LONE ROCK      LGT RAIN  64  61  90 E9        30.05S
6HR MIN TEMP:  63; 6HR MAX TEMP:  65; 6HR PCP:  0.59;

MINERAL POINT  RAIN      63  61  94 SE10G20   30.03F
MADISON        LGT RAIN  64  62  93 SE7       30.08S FOG
6HR MIN TEMP:  64; 6HR MAX TEMP:  67; 6HR PCP:  0.28;

MIDDLETON      CLOUDY    65  64  99 SE7       30.07F
6HR MIN TEMP:  65; 6HR MAX TEMP:  68; 6HR PCP:  0.34;

WATERTOWN      LGT RAIN  64  64 100 CALM      30.09R
6HR MIN TEMP:  64; 6HR MAX TEMP:  68; 6HR PCP:  0.08;

MONROE         LGT RAIN  63  63 100 CALM      30.08R
JANESVILLE     PTCLDY    66  64  94 E6        30.06S
$$

WIZ051-052-058>065-066-070>072-290100-
SOUTHEAST WISCONSIN

CITY           SKY/WX    TMP DP  RH WIND       PRES   REMARKS
MILWAUKEE      LGT RAIN  66  62  87 S7        30.09R FOG
6HR MIN TEMP:  66; 6HR MAX TEMP:  73; 6HR PCP:  0.02;

WAUKESHA       CLOUDY    64  63  94 SE6       30.11R
MILWAUKEE/TIMM LGT RAIN  66  63  88 CALM      30.10R
RACINE         LGT RAIN  67  61  81 CALM      30.10R
6HR MIN TEMP:  66; 6HR MAX TEMP:  71; 6HR PCP:  0.01;

BURLINGTON     DRIZZLE   63  62  96 CALM      30.09R
6HR MIN TEMP:  63; 6HR MAX TEMP:  68;

KENOSHA        LGT RAIN  68  62  81 SE5       30.09R
6HR MIN TEMP:  67; 6HR MAX TEMP:  74; 6HR PCP:  0.01;

FOND DU LAC    LGT RAIN  66  63  90 SE3       30.07F
6HR MIN TEMP:  66; 6HR MAX TEMP:  69; 6HR PCP:  0.05;

SHEBOYGAN      LGT RAIN  66  64  93 CALM      30.09R FOG
6HR MIN TEMP:  66; 6HR MAX TEMP:  72; 6HR PCP:  0.01;

WEST BEND      RAIN      64  63  94 CALM      30.08S
JUNEAU         RAIN      64  63  96 S7        30.10R
6HR MIN TEMP:  64; 6HR MAX TEMP:  67; 6HR PCP:  0.01;

$$

LSZ147-162-290100-
LAKE SUPERIOR

STATION/POSITION TIME  TEMP    WIND        PRES    WAVE
                       AIR SEA DIR/SP/G            HT/PER
                 (UTC) (F)     (DEG/KT/KT) (MB)    (FT/S)
W MID LAKE BUOY  2350   61 56  230/  6/  8 1013.4R   0
DEVILS ISLAND    0000   72     170/  7/  7 1013.3R
PORT WING        2300   78     210/ 10/ 15 1013.2R
SAXON HARBOR     2340   76     200/  3/  8 1013.9R
$$

LMZ867-665-643>646-290100-
LAKE MICHIGAN

STATION/POSITION TIME  TEMP    WIND        PRES    WAVE
                       AIR SEA DIR/SP/G            HT/PER



USA.gov is the U.S. government's official web portal to all federal, state and local government web resources and services.